IRIDIUM 13 [+]

Last updated on Wed Mar 21 2018 20:48:19 GMT+0000 (Coordinated Universal Time)

1 24840U 97030E 18080.44017484 .00008248 00000-0 19104-3 0 9996 2 24840 86.3908 234.1342 0285665 0.9619 359.2103 15.09311678 86738
UTC large
Height (km)
Speed (km/s)
/
Latitude / Longitude
Inclination (degrees)
Orbital Period (minutes)
Azimuth
Elevation
Range (km)
Doppler Factor

Next 0 passes for location: London (51.5072 / 0.1276)

Sorry there are no passes over London.